START_TIME,STEP,MOV.,A46,t_acc.,A13,t_acc.,M47,t_acc.,A17,t_acc.,A28,t_acc.,M38,t_acc.
1979-03-03 13:15:50.990 ,0,0,,0,1.,4.8,0.,4.8,,0,0.,4.8,296.,4.8
1979-03-03 13:15:55.790 ,0,0,,0,0.,4.8,0.,4.8,,0,0.,4.8,244.,4.8
1979-03-03 13:16:00.590 ,0,0,,0,148.,4.8,49.,4.8,,0,0.,4.8,188.,4.8
1979-03-03 13:16:05.390 ,0,0,,0,928.,4.8,272.,4.8,,0,0.,4.8,164.,4.8
1979-03-03 13:16:10.190 ,0,0,,0,944.,4.8,264.,4.8,,0,0.,4.8,172.,4.8
1979-03-03 13:16:14.990 ,2,0,,0,976.,4.8,288.,4.8,,0,0.,4.8,168.,4.8
1979-03-03 13:16:19.790 ,2,0,,0,864.,4.8,256.,4.8,,0,0.,4.8,152.,4.8
1979-03-03 13:16:24.590 ,2,0,,0,544.,4.8,180.,4.8,,0,0.,4.8,132.,4.8
1979-03-03 13:16:29.390 ,2,0,,0,1.,4.8,0.,4.8,,0,0.,4.8,120.,4.8
1979-03-03 13:16:34.190 ,2,0,,0,,0,,0,,0,,0,,0
1979-03-03 13:16:38.990 ,1,0,,0,0.,4.8,0.,4.8,,0,0.,4.8,136.,4.8
1979-03-03 13:16:43.790 ,1,0,,0,1.,4.8,0.,4.8,,0,0.,4.8,132.,4.8
1979-03-03 13:16:48.590 ,1,0,,0,140.,4.8,42.,4.8,,0,0.,4.8,122.,4.8
1979-03-03 13:16:53.390 ,1,0,,0,800.,4.8,252.,4.8,,0,0.,4.8,114.,4.8
1979-03-03 13:16:58.190 ,1,0,,0,720.,4.8,220.,4.8,,0,0.,4.8,136.,4.8
1979-03-03 13:17:02.990 ,0,0,,0,736.,4.8,232.,4.8,,0,0.,4.8,122.,4.8
1979-03-03 13:17:07.790 ,0,0,,0,832.,4.8,252.,4.8,,0,0.,4.8,140.,4.8
1979-03-03 13:17:12.590 ,0,0,,0,,0,,0,,0,,0,,0
1979-03-03 13:17:17.390 ,0,0,,0,0.,4.8,0.,4.8,,0,0.,4.8,148.,4.8
1979-03-03 13:17:22.190 ,0,0,,0,0.,4.8,0.,4.8,,0,0.,4.8,176.,4.8
1979-03-03 13:17:26.990 ,0,0,,0,1.,4.8,0.,4.8,,0,0.,4.8,176.,4.8
1979-03-03 13:17:31.790 ,0,0,,0,1.,4.8,0.,4.8,,0,0.,4.8,152.,4.8
1979-03-03 13:17:36.590 ,0,0,,0,188.,4.8,60.,4.8,,0,0.,4.8,156.,4.8
1979-03-03 13:17:41.390 ,0,0,,0,1056.,4.8,304.,4.8,,0,0.,4.8,164.,4.8
1979-03-03 13:17:46.190 ,0,0,,0,1120.,4.8,328.,4.8,,0,0.,4.8,152.,4.8
1979-03-03 13:17:50.990 ,1,0,,0,1024.,4.8,296.,4.8,,0,0.,4.8,148.,4.8
1979-03-03 13:17:55.790 ,1,0,,0,1008.,4.8,304.,4.8,,0,0.,4.8,126.,4.8
1979-03-03 13:18:00.590 ,1,0,,0,592.,4.8,184.,4.8,,0,0.,4.8,128.,4.8
1979-03-03 13:18:05.390 ,1,0,,0,1.,4.8,0.,4.8,,0,0.,4.8,132.,4.8
1979-03-03 13:18:10.190 ,1,0,,0,3.,4.8,0.,4.8,,0,0.,4.8,120.,4.8
1979-03-03 13:18:14.990 ,2,0,,0,2.,4.8,0.,4.8,,0,0.,4.8,122.,4.8
1979-03-03 13:18:19.790 ,2,0,,0,0.,4.8,0.,4.8,,0,0.,4.8,120.,4.8
1979-03-03 13:18:24.590 ,2,0,,0,,0,,0,,0,,0,,0
1979-03-03 13:18:29.390 ,2,0,,0,720.,4.8,220.,4.8,,0,0.,4.8,106.,4.8
1979-03-03 13:18:34.190 ,2,0,,0,704.,4.8,216.,4.8,,0,0.,4.8,110.,4.8
1979-03-03 13:18:38.990 ,3,0,,0,736.,4.8,212.,4.8,,0,0.,4.8,132.,4.8
1979-03-03 13:18:43.790 ,3,0,,0,784.,4.8,232.,4.8,,0,0.,4.8,128.,4.8
1979-03-03 13:18:48.590 ,3,0,,0,800.,4.8,240.,4.8,,0,0.,4.8,160.,4.8
1979-03-03 13:18:53.390 ,3,0,,0,1.,4.8,0.,4.8,,0,0.,4.8,188.,4.8
1979-03-03 13:18:58.190 ,3,0,,0,2.,4.8,0.,4.8,,0,0.,4.8,156.,4.8
1979-03-03 13:19:02.990 ,4,0,,0,2.,4.8,0.,4.8,,0,0.,4.8,148.,4.8
1979-03-03 13:19:07.790 ,4,0,,0,1.,4.8,0.,4.8,,0,0.,4.8,172.,4.8
1979-03-03 13:19:12.590 ,4,0,,0,244.,4.8,64.,4.8,,0,0.,4.8,272.,4.8
1979-03-03 13:19:17.390 ,4,0,,0,1568.,4.8,464.,4.8,,0,0.,4.8,224.,4.8
1979-03-03 13:19:22.190 ,4,0,,0,1600.,4.8,456.,4.8,,0,0.,4.8,252.,4.8
1979-03-03 13:19:26.990 ,5,0,,0,1600.,4.8,464.,4.8,,0,0.,4.8,256.,4.8
1979-03-03 13:19:31.790 ,5,0,,0,1952.,4.8,544.,4.8,,0,0.,4.8,320.,4.8
1979-03-03 13:19:36.590 ,5,0,,0,2112.,4.8,544.,4.8,,0,0.,4.8,424.,4.8
1979-03-03 13:19:41.390 ,5,0,,0,0.,4.8,0.,4.8,,0,0.,4.8,392.,4.8
1979-03-03 13:19:46.190 ,5,0,,0,1.,4.8,0.,4.8,,0,0.,4.8,384.,4.8
1979-03-03 13:19:50.990 ,6,0,,0,0.,4.8,0.,4.8,,0,0.,4.8,400.,4.8
1979-03-03 13:19:55.790 ,6,0,,0,0.,4.8,0.,4.8,,0,0.,4.8,432.,4.8
1979-03-03 13:20:00.590 ,6,0,,0,424.,4.8,116.,4.8,,0,0.,4.8,376.,4.8
1979-03-03 13:20:05.390 ,6,0,,0,2496.,4.8,656.,4.8,,0,0.,4.8,376.,4.8
1979-03-03 13:20:10.190 ,6,0,,0,2560.,4.8,672.,4.8,,0,0.,4.8,384.,4.8
1979-03-03 13:20:14.990 ,7,0,,0,2496.,4.8,640.,4.8,,0,0.,4.8,400.,4.8
1979-03-03 13:20:19.790 ,7,0,,0,1664.,4.8,456.,4.8,,0,0.,4.8,244.,4.8
1979-03-03 13:20:24.590 ,7,0,,0,7.,4.8,0.,4.8,,0,0.,4.8,0.,4.8
1979-03-03 13:20:29.390 ,7,0,,0,1.,4.8,0.,4.8,,0,0.,4.8,0.,4.8
1979-03-03 13:20:34.190 ,7,0,,0,2.,4.8,0.,4.8,,0,0.,4.8,0.,4.8
1979-03-03 13:20:38.990 ,7,0,,0,1.,4.8,0.,4.8,,0,0.,4.8,0.,4.8
1979-03-03 13:20:43.790 ,7,0,,0,1.,4.8,0.,4.8,,0,0.,4.8,0.,4.8
1979-03-03 13:20:48.590 ,7,0,,0,4.,4.8,0.,4.8,,0,0.,4.8,0.,4.8
1979-03-03 13:20:53.390 ,7,0,,0,13.,4.8,0.,4.8,,0,0.,4.8,0.,4.8
1979-03-03 13:20:58.190 ,7,0,,0,13.,4.8,0.,4.8,,0,0.,4.8,0.,4.8
1979-03-03 13:21:02.990 ,6,0,,0,15.,4.8,0.,4.8,,0,0.,4.8,0.,4.8
1979-03-03 13:21:07.790 ,6,0,,0,816.,4.8,192.,4.8,,0,0.,4.8,132.,4.8
1979-03-03 13:21:12.590 ,6,0,,0,2112.,4.8,608.,4.8,,0,0.,4.8,352.,4.8
1979-03-03 13:21:17.390 ,6,0,,0,2.,4.8,0.,4.8,,0,0.,4.8,344.,4.8
1979-03-03 13:21:22.190 ,6,0,,0,0.,4.8,0.,4.8,,0,0.,4.8,384.,4.8
1979-03-03 13:21:26.990 ,5,0,,0,1.,4.8,0.,4.8,,0,0.,4.8,376.,4.8
1979-03-03 13:21:31.790 ,5,0,,0,0.,4.8,0.,4.8,,0,0.,4.8,376.,4.8
1979-03-03 13:21:36.590 ,5,0,,0,336.,4.8,100.,4.8,,0,0.,4.8,328.,4.8
1979-03-03 13:21:41.390 ,5,0,,0,2112.,4.8,608.,4.8,,0,0.,4.8,376.,4.8
1979-03-03 13:21:46.190 ,5,0,,0,2176.,4.8,656.,4.8,,0,0.,4.8,384.,4.8
1979-03-03 13:21:50.990 ,5,0,,0,2176.,4.8,640.,4.8,,0,0.,4.8,336.,4.8
1979-03-03 13:21:55.790 ,5,0,,0,,0,,0,,0,,0,,0
1979-03-03 13:22:00.590 ,5,0,,0,,0,,0,,0,,0,,0
1979-03-03 13:22:05.390 ,5,0,,0,,0,,0,,0,,0,,0
1979-03-03 13:22:10.190 ,5,0,,0,,0,,0,,0,,0,,0
1979-03-03 13:22:14.990 ,0,0,,0,1.,4.8,0.,4.8,,0,0.,4.8,200.,4.8
1979-03-03 13:22:19.790 ,0,0,,0,3.,4.8,0.,4.8,,0,0.,4.8,196.,4.8
1979-03-03 13:22:24.590 ,0,0,,0,148.,4.8,52.,4.8,,0,0.,4.8,544.,4.8
1979-03-03 13:22:29.390 ,0,0,,0,896.,4.8,264.,4.8,,0,0.,4.8,140.,4.8
1979-03-03 13:22:34.190 ,0,0,,0,816.,4.8,252.,4.8,,0,0.,4.8,152.,4.8
1979-03-03 13:22:38.990 ,0,0,,0,,0,,0,,0,,0,,0
1979-03-03 13:22:43.790 ,0,0,,0,,0,,0,,0,,0,,0
1979-03-03 13:22:48.590 ,0,0,,0,,0,,0,,0,,0,,0
1979-03-03 13:22:53.390 ,0,0,,0,,0,,0,,0,,0,,0
1979-03-03 13:22:58.190 ,0,0,,0,,0,,0,,0,,0,,0
1979-03-03 14:39:27.590 ,0,0,,0,784.,4.8,232.,4.8,,0,0.,4.8,118.,4.8
1979-03-03 14:39:32.390 ,0,0,,0,704.,4.8,192.,4.8,,0,0.,4.8,108.,4.8
1979-03-03 14:39:37.190 ,0,0,,0,528.,4.8,152.,4.8,,0,0.,4.8,82.,4.8
1979-03-03 14:39:41.990 ,0,0,,0,2.,4.8,0.,4.8,,0,0.,4.8,96.,4.8
1979-03-03 14:39:46.790 ,0,0,,0,1.,4.8,0.,4.8,,0,0.,4.8,84.,4.8
1979-03-03 14:39:50.990 ,1,0,,0,1.,4.8,0.,4.8,,0,0.,4.8,82.,4.8
1979-03-03 14:39:55.790 ,1,0,,0,1.,4.8,0.,4.8,,0,0.,4.8,98.,4.8
1979-03-03 14:40:00.590 ,1,0,,0,96.,4.8,27.,4.8,,0,0.,4.8,94.,4.8
1979-03-03 14:40:05.390 ,1,0,,0,704.,4.8,220.,4.8,,0,0.,4.8,124.,4.8
1979-03-03 14:40:10.190 ,1,0,,0,688.,4.8,228.,4.8,,0,0.,4.8,114.,4.8
1979-03-03 14:40:14.990 ,0,0,,0,672.,4.8,184.,4.8,,0,0.,4.8,112.,4.8
1979-03-03 14:40:19.790 ,0,0,,0,736.,4.8,216.,4.8,,0,0.,4.8,128.,4.8
1979-03-03 14:40:24.590 ,0,0,,0,672.,4.8,212.,4.8,,0,0.,4.8,128.,4.8
1979-03-03 14:40:29.390 ,0,0,,0,0.,4.8,0.,4.8,,0,0.,4.8,112.,4.8
1979-03-03 14:40:34.190 ,0,0,,0,2.,4.8,0.,4.8,,0,0.,4.8,136.,4.8
1979-03-03 14:40:38.990 ,0,0,,0,1.,4.8,0.,4.8,,0,0.,4.8,120.,4.8
1979-03-03 14:40:43.790 ,0,0,,0,1.,4.8,0.,4.8,,0,0.,4.8,126.,4.8
1979-03-03 14:40:48.590 ,0,0,,0,136.,4.8,48.,4.8,,0,0.,4.8,124.,4.8
1979-03-03 14:40:53.390 ,0,0,,0,752.,4.8,228.,4.8,,0,0.,4.8,140.,4.8
1979-03-03 14:40:58.190 ,0,0,,0,848.,4.8,256.,4.8,,0,0.,4.8,110.,4.8
1979-03-03 14:41:02.990 ,1,0,,0,800.,4.8,244.,4.8,,0,0.,4.8,132.,4.8
1979-03-03 14:41:07.790 ,1,0,,0,752.,4.8,216.,4.8,,0,0.,4.8,124.,4.8
1979-03-03 14:41:12.590 ,1,0,,0,560.,4.8,168.,4.8,,0,0.,4.8,106.,4.8
1979-03-03 14:41:17.390 ,1,0,,0,0.,4.8,0.,4.8,,0,0.,4.8,106.,4.8
1979-03-03 14:41:22.190 ,1,0,,0,0.,4.8,0.,4.8,,0,0.,4.8,104.,4.8
1979-03-03 14:41:26.990 ,2,0,,0,0.,4.8,0.,4.8,,0,0.,4.8,102.,4.8
1979-03-03 14:41:31.790 ,2,0,,0,2.,4.8,0.,4.8,,0,0.,4.8,102.,4.8
1979-03-03 14:41:36.590 ,2,0,,0,86.,4.8,16.,4.8,,0,0.,4.8,92.,4.8
1979-03-03 14:41:41.390 ,2,0,,0,672.,4.8,196.,4.8,,0,0.,4.8,82.,4.8
1979-03-03 14:41:46.190 ,2,0,,0,704.,4.8,180.,4.8,,0,0.,4.8,92.,4.8
1979-03-03 14:41:50.990 ,3,0,,0,736.,4.8,192.,4.8,,0,0.,4.8,90.,4.8
1979-03-03 14:41:55.790 ,3,0,,0,752.,4.8,236.,4.8,,0,0.,4.8,108.,4.8
1979-03-03 14:42:00.590 ,3,0,,0,752.,4.8,200.,4.8,,0,0.,4.8,136.,4.8
1979-03-03 14:42:05.390 ,3,0,,0,0.,4.8,0.,4.8,,0,0.,4.8,140.,4.8
1979-03-03 14:42:10.190 ,3,0,,0,2.,4.8,0.,4.8,,0,0.,4.8,128.,4.8
1979-03-03 14:42:14.990 ,4,0,,0,0.,4.8,0.,4.8,,0,0.,4.8,144.,4.8
1979-03-03 14:42:19.790 ,4,0,,0,0.,4.8,0.,4.8,,0,0.,4.8,156.,4.8
1979-03-03 14:42:24.590 ,4,0,,0,244.,4.8,70.,4.8,,0,0.,4.8,224.,4.8
1979-03-03 14:42:29.390 ,4,0,,0,1248.,4.8,328.,4.8,,0,0.,4.8,240.,4.8
1979-03-03 14:42:34.190 ,4,0,,0,1376.,4.8,376.,4.8,,0,0.,4.8,228.,4.8
1979-03-03 14:42:38.990 ,5,0,,0,1344.,4.8,368.,4.8,,0,0.,4.8,240.,4.8
1979-03-03 14:42:43.790 ,5,0,,0,1472.,4.8,392.,4.8,,0,0.,4.8,252.,4.8
1979-03-03 14:42:48.590 ,5,0,,0,1440.,4.8,416.,4.8,,0,0.,4.8,312.,4.8
1979-03-03 14:42:53.390 ,5,0,,0,0.,4.8,0.,4.8,,0,0.,4.8,272.,4.8
1979-03-03 14:42:58.190 ,5,0,,0,2.,4.8,0.,4.8,,0,0.,4.8,312.,4.8
1979-03-03 14:43:02.990 ,6,0,,0,1.,4.8,0.,4.8,,0,0.,4.8,336.,4.8
1979-03-03 14:43:07.790 ,6,0,,0,1.,4.8,0.,4.8,,0,0.,4.8,288.,4.8
1979-03-03 14:43:12.590 ,6,0,,0,344.,4.8,98.,4.8,,0,0.,4.8,296.,4.8
1979-03-03 14:43:17.390 ,6,0,,0,1920.,4.8,528.,4.8,,0,0.,4.8,272.,4.8
1979-03-03 14:43:22.190 ,6,0,,0,1984.,4.8,528.,4.8,,0,0.,4.8,288.,4.8
1979-03-03 14:43:26.990 ,7,0,,0,2016.,4.8,544.,4.8,,0,0.,4.8,304.,4.8
1979-03-03 14:43:31.790 ,7,0,,0,1312.,4.8,352.,4.8,,0,0.,4.8,188.,4.8
1979-03-03 14:43:36.590 ,7,0,,0,8.,4.8,0.,4.8,,0,0.,4.8,0.,4.8
1979-03-03 14:43:41.390 ,7,0,,0,1.,4.8,0.,4.8,,0,0.,4.8,0.,4.8
1979-03-03 14:43:46.190 ,7,0,,0,2.,4.8,0.,4.8,,0,0.,4.8,0.,4.8
1979-03-03 14:43:50.990 ,7,0,,0,0.,4.8,0.,4.8,,0,0.,4.8,0.,4.8
1979-03-03 14:43:55.790 ,7,0,,0,1.,4.8,0.,4.8,,0,0.,4.8,0.,4.8
1979-03-03 14:44:00.590 ,7,0,,0,2.,4.8,0.,4.8,,0,0.,4.8,0.,4.8
1979-03-03 14:44:05.390 ,7,0,,0,11.,4.8,0.,4.8,,0,0.,4.8,0.,4.8
1979-03-03 14:44:10.190 ,7,0,,0,11.,4.8,0.,4.8,,0,0.,4.8,0.,4.8
1979-03-03 14:44:14.990 ,6,0,,0,10.,4.8,0.,4.8,,0,0.,4.8,0.,4.8
1979-03-03 14:44:19.790 ,6,0,,0,656.,4.8,164.,4.8,,0,0.,4.8,90.,4.8
1979-03-03 14:44:24.590 ,6,0,,0,1664.,4.8,440.,4.8,,0,0.,4.8,320.,4.8
1979-03-03 14:44:29.390 ,6,0,,0,1.,4.8,0.,4.8,,0,0.,4.8,328.,4.8
1979-03-03 14:44:34.190 ,6,0,,0,0.,4.8,0.,4.8,,0,0.,4.8,296.,4.8
1979-03-03 14:44:38.990 ,5,0,,0,0.,4.8,0.,4.8,,0,0.,4.8,312.,4.8
1979-03-03 14:44:43.790 ,5,0,,0,0.,4.8,0.,4.8,,0,0.,4.8,336.,4.8
1979-03-03 14:44:48.590 ,5,0,,0,296.,4.8,100.,4.8,,0,0.,4.8,304.,4.8
1979-03-03 14:44:53.390 ,5,0,,0,2048.,4.8,560.,4.8,,0,0.,4.8,336.,4.8
1979-03-03 14:44:58.190 ,5,0,,0,2016.,4.8,504.,4.8,,0,0.,4.8,312.,4.8
1979-03-03 14:45:02.990 ,4,0,,0,1952.,4.8,528.,4.8,,0,0.,4.8,328.,4.8
1979-03-03 14:45:07.790 ,4,0,,0,1888.,4.8,528.,4.8,,0,0.,4.8,296.,4.8
1979-03-03 14:45:12.590 ,4,0,,0,1312.,4.8,352.,4.8,,0,0.,4.8,264.,4.8
1979-03-03 14:45:17.390 ,4,0,,0,0.,4.8,0.,4.8,,0,0.,4.8,232.,4.8
1979-03-03 14:45:22.190 ,4,0,,0,2.,4.8,0.,4.8,,0,0.,4.8,228.,4.8
1979-03-03 14:45:26.990 ,3,0,,0,1.,4.8,0.,4.8,,0,0.,4.8,248.,4.8
1979-03-03 14:45:31.790 ,3,0,,0,1.,4.8,0.,4.8,,0,0.,4.8,176.,4.8
1979-03-03 14:45:36.590 ,3,0,,0,136.,4.8,48.,4.8,,0,0.,4.8,128.,4.8
1979-03-03 14:45:41.390 ,3,0,,0,784.,4.8,232.,4.8,,0,0.,4.8,132.,4.8
1979-03-03 14:45:46.190 ,3,0,,0,816.,4.8,224.,4.8,,0,0.,4.8,124.,4.8
1979-03-03 14:45:50.990 ,2,0,,0,784.,4.8,220.,4.8,,0,0.,4.8,110.,4.8
1979-03-03 14:45:55.790 ,2,0,,0,720.,4.8,196.,4.8,,0,0.,4.8,124.,4.8
1979-03-03 14:46:00.590 ,2,0,,0,544.,4.8,152.,4.8,,0,0.,4.8,100.,4.8
1979-03-03 14:46:05.390 ,2,0,,0,3.,4.8,0.,4.8,,0,0.,4.8,94.,4.8
1979-03-03 14:46:10.190 ,2,0,,0,2.,4.8,0.,4.8,,0,0.,4.8,76.,4.8
1979-03-03 14:46:14.990 ,1,0,,0,0.,4.8,0.,4.8,,0,0.,4.8,82.,4.8
1979-03-03 14:46:19.790 ,1,0,,0,1.,4.8,0.,4.8,,0,0.,4.8,84.,4.8
1979-03-03 14:46:24.590 ,1,0,,0,112.,4.8,38.,4.8,,0,0.,4.8,88.,4.8
1979-03-03 14:46:29.390 ,1,0,,0,624.,4.8,192.,4.8,,0,0.,4.8,90.,4.8
1979-03-03 14:46:34.190 ,1,0,,0,656.,4.8,196.,4.8,,0,0.,4.8,84.,4.8
1979-03-03 14:46:38.990 ,0,0,,0,672.,4.8,208.,4.8,,0,0.,4.8,116.,4.8
1979-03-03 14:46:43.790 ,0,0,,0,720.,4.8,236.,4.8,,0,0.,4.8,118.,4.8
1979-03-03 14:46:48.590 ,0,0,,0,768.,4.8,204.,4.8,,0,0.,4.8,168.,4.8
1979-03-03 14:46:53.390 ,0,0,,0,0.,4.8,0.,4.8,,0,0.,4.8,144.,4.8
1979-03-03 14:46:58.190 ,0,0,,0,0.,4.8,0.,4.8,,0,0.,4.8,148.,4.8
1979-03-03 14:47:02.990 ,0,0,,0,0.,4.8,0.,4.8,,0,0.,4.8,140.,4.8
1979-03-03 14:47:07.790 ,0,0,,0,2.,4.8,0.,4.8,,0,0.,4.8,132.,4.8
1979-03-03 14:47:12.590 ,0,0,,0,136.,4.8,39.,4.8,,0,0.,4.8,140.,4.8
1979-03-03 14:47:17.390 ,0,0,,0,864.,4.8,200.,4.8,,0,0.,4.8,140.,4.8
1979-03-03 14:47:22.190 ,0,0,,0,864.,4.8,208.,4.8,,0,0.,4.8,132.,4.8
1979-03-03 14:47:26.990 ,1,0,,0,864.,4.8,212.,4.8,,0,0.,4.8,140.,4.8
1979-03-03 14:47:31.790 ,1,0,,0,832.,4.8,212.,4.8,,0,0.,4.8,104.,4.8
1979-03-03 14:47:36.590 ,1,0,,0,656.,4.8,196.,4.8,,0,0.,4.8,116.,4.8
1979-03-03 14:47:41.390 ,1,0,,0,0.,4.8,0.,4.8,,0,0.,4.8,120.,4.8
1979-03-03 14:47:46.190 ,1,0,,0,1.,4.8,0.,4.8,,0,0.,4.8,108.,4.8
1979-03-03 14:47:50.990 ,2,0,,0,1.,4.8,0.,4.8,,0,0.,4.8,112.,4.8
1979-03-03 14:47:55.790 ,2,0,,0,0.,4.8,0.,4.8,,0,0.,4.8,110.,4.8
1979-03-03 14:48:00.590 ,2,0,,0,98.,4.8,29.,4.8,,0,0.,4.8,94.,4.8
1979-03-03 14:48:05.390 ,2,0,,0,592.,4.8,180.,4.8,,0,0.,4.8,98.,4.8
1979-03-03 14:48:10.190 ,2,0,,0,672.,4.8,172.,4.8,,0,0.,4.8,86.,4.8
1979-03-03 14:48:14.990 ,3,0,,0,656.,4.8,220.,4.8,,0,0.,4.8,84.,4.8
1979-03-03 14:48:19.790 ,3,0,,0,688.,4.8,196.,4.8,,0,0.,4.8,94.,4.8
1979-03-03 14:48:24.590 ,3,0,,0,656.,4.8,184.,4.8,,0,0.,4.8,92.,4.8
1979-03-03 14:48:29.390 ,3,0,,0,0.,4.8,0.,4.8,,0,0.,4.8,116.,4.8
1979-03-03 14:48:34.190 ,3,0,,0,0.,4.8,0.,4.8,,0,0.,4.8,102.,4.8
1979-03-03 14:48:38.990 ,4,0,,0,0.,4.8,0.,4.8,,0,0.,4.8,110.,4.8
1979-03-03 14:48:43.790 ,4,0,,0,0.,4.8,0.,4.8,,0,0.,4.8,152.,4.8
1979-03-03 14:48:48.590 ,4,0,,0,248.,4.8,64.,4.8,,0,0.,4.8,252.,4.8
1979-03-03 14:48:53.390 ,4,0,,0,1472.,4.8,464.,4.8,,0,0.,4.8,236.,4.8
1979-03-03 14:48:58.190 ,4,0,,0,1472.,4.8,456.,4.8,,0,0.,4.8,232.,4.8
1979-03-03 14:49:02.990 ,5,0,,0,1504.,4.8,472.,4.8,,0,0.,4.8,256.,4.8
1979-03-03 14:49:07.790 ,5,0,,0,1664.,4.8,440.,4.8,,0,0.,4.8,304.,4.8
1979-03-03 14:49:12.590 ,5,0,,0,1600.,4.8,376.,4.8,,0,0.,4.8,288.,4.8
1979-03-03 14:49:17.390 ,5,0,,0,0.,4.8,0.,4.8,,0,0.,4.8,328.,4.8
1979-03-03 14:49:22.190 ,5,0,,0,1.,4.8,0.,4.8,,0,0.,4.8,352.,4.8
1979-03-03 14:49:26.990 ,6,0,,0,0.,4.8,0.,4.8,,0,0.,4.8,320.,4.8
1979-03-03 14:49:31.790 ,6,0,,0,0.,4.8,0.,4.8,,0,0.,4.8,336.,4.8
1979-03-03 14:49:36.590 ,6,0,,0,264.,4.8,72.,4.8,,0,0.,4.8,256.,4.8
1979-03-03 14:49:41.390 ,6,0,,0,1568.,4.8,424.,4.8,,0,0.,4.8,228.,4.8
1979-03-03 14:49:46.190 ,6,0,,0,1600.,4.8,440.,4.8,,0,0.,4.8,224.,4.8
1979-03-03 14:49:50.990 ,7,0,,0,1536.,4.8,408.,4.8,,0,0.,4.8,256.,4.8
1979-03-03 14:49:55.790 ,7,0,,0,1120.,4.8,296.,4.8,,0,0.,4.8,160.,4.8
1979-03-03 14:50:00.590 ,7,0,,0,12.,4.8,1.,4.8,,0,0.,4.8,0.,4.8
1979-03-03 14:50:05.390 ,7,0,,0,0.,4.8,0.,4.8,,0,0.,4.8,0.,4.8
1979-03-03 14:50:10.190 ,7,0,,0,2.,4.8,0.,4.8,,0,0.,4.8,0.,4.8
1979-03-03 14:50:14.990 ,7,0,,0,0.,4.8,0.,4.8,,0,0.,4.8,0.,4.8
1979-03-03 14:50:19.790 ,7,0,,0,1.,4.8,0.,4.8,,0,0.,4.8,0.,4.8
1979-03-03 14:50:24.590 ,7,0,,0,3.,4.8,0.,4.8,,0,0.,4.8,0.,4.8
1979-03-03 14:50:29.390 ,7,0,,0,10.,4.8,0.,4.8,,0,0.,4.8,0.,4.8
1979-03-03 14:50:34.190 ,7,0,,0,14.,4.8,0.,4.8,,0,0.,4.8,0.,4.8
1979-03-03 14:50:38.990 ,6,0,,0,12.,4.8,0.,4.8,,0,0.,4.8,0.,4.8
1979-03-03 14:50:43.790 ,6,0,,0,560.,4.8,132.,4.8,,0,0.,4.8,80.,4.8
1979-03-03 14:50:48.590 ,6,0,,0,1408.,4.8,328.,4.8,,0,0.,4.8,264.,4.8
1979-03-03 14:50:53.390 ,6,0,,0,1.,4.8,0.,4.8,,0,0.,4.8,264.,4.8
1979-03-03 14:50:58.190 ,6,0,,0,0.,4.8,0.,4.8,,0,0.,4.8,280.,4.8
1979-03-03 14:51:02.990 ,5,0,,0,0.,4.8,0.,4.8,,0,0.,4.8,256.,4.8
1979-03-03 14:51:07.790 ,5,0,,0,2.,4.8,0.,4.8,,0,0.,4.8,288.,4.8
1979-03-03 14:51:12.590 ,5,0,,0,328.,4.8,84.,4.8,,0,0.,4.8,320.,4.8
1979-03-03 14:51:17.390 ,5,0,,0,1984.,4.8,504.,4.8,,0,0.,4.8,296.,4.8
1979-03-03 14:51:22.190 ,5,0,,0,1920.,4.8,464.,4.8,,0,0.,4.8,304.,4.8
1979-03-03 14:51:26.990 ,4,0,,0,1920.,4.8,464.,4.8,,0,0.,4.8,296.,4.8
1979-03-03 14:51:31.790 ,4,0,,0,1664.,4.8,432.,4.8,,0,0.,4.8,288.,4.8
1979-03-03 14:51:36.590 ,4,0,,0,1056.,4.8,312.,4.8,,0,0.,4.8,192.,4.8
1979-03-03 14:51:41.390 ,4,0,,0,1.,4.8,0.,4.8,,0,0.,4.8,204.,4.8
1979-03-03 14:51:46.190 ,4,0,,0,2.,4.8,0.,4.8,,0,0.,4.8,196.,4.8
1979-03-03 14:51:50.990 ,3,0,,0,3.,4.8,0.,4.8,,0,0.,4.8,192.,4.8
1979-03-03 14:51:55.790 ,3,0,,0,0.,4.8,0.,4.8,,0,0.,4.8,172.,4.8
1979-03-03 14:52:00.590 ,3,0,,0,116.,4.8,29.,4.8,,0,0.,4.8,106.,4.8
1979-03-03 14:52:05.390 ,3,0,,0,704.,4.8,184.,4.8,,0,0.,4.8,116.,4.8
1979-03-03 14:52:10.190 ,3,0,,0,720.,4.8,200.,4.8,,0,0.,4.8,86.,4.8
1979-03-03 14:52:14.990 ,2,0,,0,752.,4.8,200.,4.8,,0,0.,4.8,118.,4.8
1979-03-03 14:52:19.790 ,2,0,,0,608.,4.8,184.,4.8,,0,0.,4.8,98.,4.8
1979-03-03 14:52:24.590 ,2,0,,0,480.,4.8,144.,4.8,,0,0.,4.8,92.,4.8
1979-03-03 14:52:29.390 ,2,0,,0,2.,4.8,0.,4.8,,0,0.,4.8,70.,4.8
1979-03-03 14:52:34.190 ,2,0,,0,0.,4.8,0.,4.8,,0,0.,4.8,74.,4.8
1979-03-03 14:52:38.990 ,1,0,,0,0.,4.8,0.,4.8,,0,0.,4.8,70.,4.8
1979-03-03 14:52:43.790 ,1,0,,0,1.,4.8,0.,4.8,,0,0.,4.8,78.,4.8
1979-03-03 14:52:48.590 ,1,0,,0,136.,4.8,47.,4.8,,0,0.,4.8,106.,4.8
1979-03-03 14:52:53.390 ,1,0,,0,768.,4.8,252.,4.8,,0,0.,4.8,122.,4.8
1979-03-03 14:52:58.190 ,1,0,,0,768.,4.8,252.,4.8,,0,0.,4.8,112.,4.8
1979-03-03 14:53:02.990 ,0,0,,0,736.,4.8,252.,4.8,,0,0.,4.8,104.,4.8
1979-03-03 14:53:07.790 ,0,0,,0,928.,4.8,288.,4.8,,0,0.,4.8,132.,4.8
1979-03-03 14:53:12.590 ,0,0,,0,960.,4.8,320.,4.8,,0,0.,4.8,228.,4.8
1979-03-03 14:53:17.390 ,0,0,,0,0.,4.8,0.,4.8,,0,0.,4.8,224.,4.8
1979-03-03 14:53:22.190 ,0,0,,0,1.,4.8,0.,4.8,,0,0.,4.8,212.,4.8
1979-03-03 14:53:26.990 ,0,0,,0,0.,4.8,0.,4.8,,0,0.,4.8,220.,4.8
1979-03-03 14:53:31.790 ,0,0,,0,0.,4.8,0.,4.8,,0,0.,4.8,212.,4.8
1979-03-03 14:53:36.590 ,0,0,,0,212.,4.8,66.,4.8,,0,0.,4.8,192.,4.8
1979-03-03 14:53:41.390 ,0,0,,0,1120.,4.8,328.,4.8,,0,0.,4.8,200.,4.8
1979-03-03 14:53:46.190 ,0,0,,0,1120.,4.8,336.,4.8,,0,0.,4.8,188.,4.8
1979-03-03 14:53:50.990 ,1,0,,0,1184.,4.8,352.,4.8,,0,0.,4.8,208.,4.8
1979-03-03 14:53:55.790 ,1,0,,0,1008.,4.8,288.,4.8,,0,0.,4.8,180.,4.8
1979-03-03 14:54:00.590 ,1,0,,0,688.,4.8,220.,4.8,,0,0.,4.8,140.,4.8
1979-03-03 14:54:05.390 ,1,0,,0,1.,4.8,0.,4.8,,0,0.,4.8,132.,4.8
1979-03-03 14:54:10.190 ,1,0,,0,0.,4.8,0.,4.8,,0,0.,4.8,132.,4.8
1979-03-03 14:54:14.990 ,2,0,,0,3.,4.8,0.,4.8,,0,0.,4.8,108.,4.8
1979-03-03 14:54:19.790 ,2,0,,0,0.,4.8,0.,4.8,,0,0.,4.8,110.,4.8
1979-03-03 14:54:24.590 ,2,0,,0,114.,4.8,27.,4.8,,0,0.,4.8,68.,4.8
1979-03-03 14:54:29.390 ,2,0,,0,672.,4.8,212.,4.8,,0,0.,4.8,72.,4.8
1979-03-03 14:54:34.190 ,2,0,,0,672.,4.8,180.,4.8,,0,0.,4.8,94.,4.8
1979-03-03 14:54:38.990 ,3,0,,0,720.,4.8,204.,4.8,,0,0.,4.8,74.,4.8
1979-03-03 14:54:43.790 ,3,0,,0,752.,4.8,204.,4.8,,0,0.,4.8,92.,4.8
1979-03-03 14:54:48.590 ,3,0,,0,704.,4.8,192.,4.8,,0,0.,4.8,112.,4.8
1979-03-03 14:54:53.390 ,3,0,,0,2.,4.8,0.,4.8,,0,0.,4.8,116.,4.8
1979-03-03 14:54:58.190 ,3,0,,0,3.,4.8,0.,4.8,,0,0.,4.8,128.,4.8
1979-03-03 14:55:02.990 ,4,0,,0,0.,4.8,0.,4.8,,0,0.,4.8,110.,4.8
1979-03-03 14:55:07.790 ,4,0,,0,1.,4.8,0.,4.8,,0,0.,4.8,180.,4.8
1979-03-03 14:55:12.590 ,4,0,,0,244.,4.8,68.,4.8,,0,0.,4.8,280.,4.8
1979-03-03 14:55:17.390 ,4,0,,0,1632.,4.8,440.,4.8,,0,0.,4.8,288.,4.8
1979-03-03 14:55:22.190 ,4,0,,0,1664.,4.8,440.,4.8,,0,0.,4.8,264.,4.8
1979-03-03 14:55:26.990 ,5,0,,0,1600.,4.8,400.,4.8,,0,0.,4.8,280.,4.8
1979-03-03 14:55:31.790 ,5,0,,0,1856.,4.8,480.,4.8,,0,0.,4.8,320.,4.8
1979-03-03 14:55:36.590 ,5,0,,0,1760.,4.8,432.,4.8,,0,0.,4.8,352.,4.8
1979-03-03 14:55:41.390 ,5,0,,0,1.,4.8,0.,4.8,,0,0.,4.8,376.,4.8
1979-03-03 14:55:46.190 ,5,0,,0,0.,4.8,0.,4.8,,0,0.,4.8,368.,4.8
1979-03-03 14:55:50.990 ,6,0,,0,0.,4.8,0.,4.8,,0,0.,4.8,360.,4.8
1979-03-03 14:55:55.790 ,6,0,,0,3.,4.8,0.,4.8,,0,0.,4.8,320.,4.8
1979-03-03 14:56:00.590 ,6,0,,0,344.,4.8,106.,4.8,,0,0.,4.8,336.,4.8
1979-03-03 14:56:05.390 ,6,0,,0,1856.,4.8,472.,4.8,,0,0.,4.8,368.,4.8
1979-03-03 14:56:10.190 ,6,0,,0,1952.,4.8,504.,4.8,,0,0.,4.8,360.,4.8
1979-03-03 14:56:14.990 ,7,0,,0,1984.,4.8,512.,4.8,,0,0.,4.8,344.,4.8
1979-03-03 14:56:19.790 ,7,0,,0,1280.,4.8,336.,4.8,,0,0.,4.8,224.,4.8
1979-03-03 14:56:24.590 ,7,0,,0,4.,4.8,0.,4.8,,0,0.,4.8,0.,4.8
1979-03-03 14:56:29.390 ,7,0,,0,1.,4.8,0.,4.8,,0,0.,4.8,0.,4.8
1979-03-03 14:56:34.190 ,7,0,,0,0.,4.8,0.,4.8,,0,0.,4.8,0.,4.8
1979-03-03 14:56:38.990 ,7,0,,0,1.,4.8,0.,4.8,,0,0.,4.8,0.,4.8
1979-03-03 14:56:43.790 ,7,0,,0,0.,4.8,0.,4.8,,0,0.,4.8,0.,4.8
1979-03-03 14:56:48.590 ,7,0,,0,6.,4.8,0.,4.8,,0,0.,4.8,0.,4.8
1979-03-03 14:56:53.390 ,7,0,,0,13.,4.8,0.,4.8,,0,0.,4.8,0.,4.8
1979-03-03 14:56:58.190 ,7,0,,0,11.,4.8,0.,4.8,,0,0.,4.8,0.,4.8
1979-03-03 14:57:02.990 ,6,0,,0,15.,4.8,0.,4.8,,0,0.,4.8,0.,4.8
1979-03-03 14:57:07.790 ,6,0,,0,640.,4.8,176.,4.8,,0,0.,4.8,122.,4.8
1979-03-03 14:57:12.590 ,6,0,,0,1696.,4.8,448.,4.8,,0,0.,4.8,376.,4.8
1979-03-03 14:57:17.390 ,6,0,,0,0.,4.8,0.,4.8,,0,0.,4.8,376.,4.8
1979-03-03 14:57:22.190 ,6,0,,0,1.,4.8,0.,4.8,,0,0.,4.8,392.,4.8
1979-03-03 14:57:26.990 ,5,0,,0,1.,4.8,0.,4.8,,0,0.,4.8,368.,4.8
1979-03-03 14:57:31.790 ,5,0,,0,0.,4.8,0.,4.8,,0,0.,4.8,400.,4.8
1979-03-03 14:57:36.590 ,5,0,,0,440.,4.8,110.,4.8,,0,0.,4.8,504.,4.8
1979-03-03 14:57:41.390 ,5,0,,0,2432.,4.8,624.,4.8,,0,0.,4.8,448.,4.8
1979-03-03 14:57:46.190 ,5,0,,0,2624.,4.8,656.,4.8,,0,0.,4.8,480.,4.8
1979-03-03 14:57:50.990 ,4,0,,0,2688.,4.8,624.,4.8,,0,0.,4.8,496.,4.8
1979-03-03 14:57:55.790 ,4,0,,0,2368.,4.8,656.,4.8,,0,0.,4.8,456.,4.8
1979-03-03 14:58:00.590 ,4,0,,0,1568.,4.8,456.,4.8,,0,0.,4.8,304.,4.8
1979-03-03 14:58:05.390 ,4,0,,0,1.,4.8,0.,4.8,,0,0.,4.8,280.,4.8
1979-03-03 14:58:10.190 ,4,0,,0,2.,4.8,0.,4.8,,0,0.,4.8,296.,4.8
1979-03-03 14:58:14.990 ,3,0,,0,1.,4.8,0.,4.8,,0,0.,4.8,288.,4.8
1979-03-03 14:58:19.790 ,3,0,,0,1.,4.8,0.,4.8,,0,0.,4.8,228.,4.8
1979-03-03 14:58:24.590 ,3,0,,0,148.,4.8,42.,4.8,,0,0.,4.8,128.,4.8
1979-03-03 14:58:29.390 ,3,0,,0,816.,4.8,248.,4.8,,0,0.,4.8,136.,4.8
1979-03-03 14:58:34.190 ,3,0,,0,832.,4.8,256.,4.8,,0,0.,4.8,112.,4.8
1979-03-03 14:58:38.990 ,2,0,,0,784.,4.8,232.,4.8,,0,0.,4.8,112.,4.8
1979-03-03 14:58:43.790 ,2,0,,0,704.,4.8,200.,4.8,,0,0.,4.8,118.,4.8
1979-03-03 14:58:48.590 ,2,0,,0,384.,4.8,100.,4.8,,0,0.,4.8,94.,4.8
1979-03-03 14:58:53.390 ,2,0,,0,2.,4.8,0.,4.8,,0,0.,4.8,94.,4.8
1979-03-03 14:58:58.190 ,2,0,,0,1.,4.8,0.,4.8,,0,0.,4.8,84.,4.8
1979-03-03 14:59:02.990 ,1,0,,0,1.,4.8,0.,4.8,,0,0.,4.8,76.,4.8
1979-03-03 14:59:07.790 ,1,0,,0,0.,4.8,0.,4.8,,0,0.,4.8,86.,4.8
1979-03-03 14:59:12.590 ,1,0,,0,120.,4.8,33.,4.8,,0,0.,4.8,128.,4.8
1979-03-03 14:59:17.390 ,1,0,,0,688.,4.8,192.,4.8,,0,0.,4.8,100.,4.8
1979-03-03 14:59:22.190 ,1,0,,0,672.,4.8,164.,4.8,,0,0.,4.8,92.,4.8
1979-03-03 14:59:26.990 ,0,0,,0,752.,4.8,228.,4.8,,0,0.,4.8,128.,4.8
1979-03-03 14:59:31.790 ,0,0,,0,768.,4.8,192.,4.8,,0,0.,4.8,124.,4.8
1979-03-03 14:59:36.590 ,0,0,,0,656.,4.8,164.,4.8,,0,0.,4.8,136.,4.8
1979-03-03 14:59:41.390 ,0,0,,0,0.,4.8,0.,4.8,,0,0.,4.8,128.,4.8
1979-03-03 14:59:46.190 ,0,0,,0,1.,4.8,0.,4.8,,0,0.,4.8,136.,4.8
1979-03-03 14:59:50.990 ,0,0,,0,2.,4.8,0.,4.8,,0,0.,4.8,118.,4.8
1979-03-03 14:59:55.790 ,0,0,,0,1.,4.8,0.,4.8,,0,0.,4.8,128.,4.8
1979-03-03 15:00:00.590 ,0,0,,0,132.,4.8,31.,4.8,,0,0.,4.8,114.,4.8
1979-03-03 15:00:05.390 ,0,0,,0,800.,4.8,196.,4.8,,0,0.,4.8,128.,4.8
1979-03-03 15:00:10.190 ,0,0,,0,832.,4.8,208.,4.8,,0,0.,4.8,120.,4.8
